CAPE
1117 1144 1020 920 761 625 350 214 95 32 21 0 0 0 0 0 0 0 0 0 0 0 0 0 0 0 0 0 0 0 0 0 0 0 0 0 0 0 0 0 0 0 0
1198 1234 1248 1117 893 869 610 447 223 183 83 69 0 0 0 0 0 0 0 0 0 0 0 0 0 0 0 0 0 0 0 0 0 0 0 0 0 0 0 0 0 0 0
1205 1074 991 925 940 781 628 370 109 56 32 0 0 0 0 0 0 0 0 0 0 0 0 0 0 0 0 0 0 0 0 0 0 0 0 0 0 0 0 0 0 0 0
1053 824 726 658 658 631 413 226 89 35 22 0 0 0 0 0 0 0 0 0 0 0 0 0 0 0 0 0 0 0 0 0 0 0 0 0 0 0 0 0 0 0 0
762 681 513 478 471 426 396 299 216 157 51 32 13 5 0 0 0 0 0 0 0 0 0 0 0 0 0 0 0 0 0 0 0 0 0 0 0 0 0 0 0 0 0
60 500 436 395 472 323 472 579 489 467 326 202 163 140 100 43 8 0 0 0 0 0 0 0 0 0 0 0 0 0 0 0 0 0 0 0 0 0 0 0 0 0 0
13 409 429 316 183 186 287 398 426 351 319 258 168 133 106 97 109 84 30 6 11 11 10 0 0 0 0 0 0 0 0 0 0 0 0 0 0 0 0 0 0 0 0
135 290 271 166 122 95 86 150 179 177 168 132 153 142 177 212 170 111 40 20 10 16 7 0 0 1 0 0 0 0 0 0 0 1 1 1 0 3 0 0 0 0 0
0 0 0 0 0 0 0 16 69 43 34 58 71 89 79 123 128 71 35 8 4 5 0 0 1 1 1 0 0 0 0 0 0 1 4 1 3 0 0 0 1 0 5
0 0 0 0 0 0 0 0 0 9 34 79 66 85 50 49 34 54 23 36 15 3 0 1 1 1 0 0 0 0 0 0 1 1 0 0 0 0 0 0 0 5 0
0 0 1 0 0 0 0 0 0 0 18 25 19 3 65 86 84 13 9 7 4 0 0 0 1 0 0 0 0 0 0 0 2 0 0 0 0 0 0 0 0 5 0
24 24 18 8 11 8 3 1 3 0 0 0 0 14 19 78 50 30 9 1 2 0 0 1 1 0 0 0 0 0 0 0 0 0 0 0 0 0 0 0 0 0 0
8 6 1 1 21 24 15 7 9 0 15 13 13 3 0 12 77 33 6 0 0 1 0 0 0 0 0 0 0 0 0 0 0 0 0 0 0 0 0 0 0 0 0
29 22 24 44 0 0 0 0 27 39 19 18 12 18 25 36 43 59 42 0 0 1 1 0 0 0 0 0 0 0 0 0 0 0 0 0 0 0 0 0 0 0 0
28 36 41 6 0 0 0 0 0 0 0 0 0 16 38 41 66 117 105 25 3 1 1 0 0 0 0 0 0 0 0 0 0 0 0 0 0 0 0 0 0 0 0
21 14 14 0 0 0 0 0 1 0 0 0 0 0 1 2 69 124 88 51 1 0 0 0 0 0 0 0 0 0 0 0 0 0 0 0 0 0 0 0 0 0 0
3 6 3 4 0 1 0 0 0 0 0 0 0 0 0 0 0 51 60 3 0 0 2 0 17 1 0 0 0 0 0 0 0 0 0 0 0 0 0 0 0 0 0
2 2 0 2 0 0 0 0 0 0 0 2 0 0 0 0 0 0 0 0 0 0 2 6 0 0 0 0 0 0 0 0 0 0 0 0 0 0 0 0 0 0 0
2 0 0 0 0 0 0 0 0 0 0 0 0 0 0 0 0 0 0 7 1 3 2 0 0 0 0 0 0 0 0 0 0 0 0 0 0 0 0 0 0 0 0
0 0 0 0 0 0 0 0 0 0 0 0 0 0 0 0 0 0 0 1 0 0 0 0 0 0 0 0 0 0 0 0 0 0 0 0 0 0 0 0 0 0 1
0 0 0 0 0 0 0 0 0 0 0 0 0 0 0 0 0 0 0 2 12 0 0 0 0 0 0 0 0 0 0 0 0 0 0 0 0 0 0 0 0 0 0
0 0 0 0 0 0 0 0 0 0 0 0 0 0 0 0 1 0 0 6 0 0 0 0 0 0 0 0 0 0 0 0 0 0 0 0 0 0 0 0 0 0 0
0 0 0 0 0 0 0 1 0 0 0 1 0 0 1 1 0 0 0 0 0 0 0 0 0 0 0 0 0 0 0 0 0 0 0 0 0 0 0 0 0 0 0
0 0 0 0 0 0 0 0 2 1 1 1 1 1 0 0 0 1 0 0 0 0 0 0 0 0 0 0 0 0 0 0 0 0 0 0 0 0 0 0 0 0 0
0 0 0 4 0 0 0 0 1 1 0 1 0 0 0 0 0 0 0 0 0 0 0 0 0 0 0 0 0 0 0 0 0 0 0 0 0 0 0 0 0 0 0
0 0 4 0 0 0 0 0 0 0 0 0 0 0 0 0 0 0 0 0 0 0 0 0 0 0 0 0 0 0 0 0 0 0 0 0 0 0 0 0 0 0 0
CIN
-118 -102 -105 -99 -113 -136 -168 -175 -196 -205 -195 -0 -0 -0 -0 -0 -0 -0 -0 -0 -0 -0 -0 -0 -0 -0 -0 -0 -0 -0 -0 -0 -0 -0 -0 -0 -0 -0 -0 -0 -0 -0 -0
-96 -81 -59 -65 -67 -67 -102 -114 -128 -118 -138 -129 -0 -0 -0 -0 -0 -0 -0 -0 -0 -0 -0 -0 -0 -0 -0 -0 -0 -0 -0 -0 -0 -0 -0 -0 -0 -0 -0 -0 -0 -0 -0
-81 -69 -66 -70 -65 -49 -68 -92 -127 -146 -162 -0 -0 -0 -0 -0 -0 -0 -0 -0 -0 -0 -0 -0 -0 -0 -0 -0 -0 -0 -0 -0 -0 -0 -0 -0 -0 -0 -0 -0 -0 -0 -0
-69 -71 -54 -72 -62 -41 -67 -95 -117 -138 -147 -0 -0 -0 -0 -0 -0 -0 -0 -0 -0 -0 -0 -0 -0 -0 -0 -0 -0 -0 -0 -0 -0 -0 -0 -0 -0 -0 -0 -0 -0 -0 -0
-98 -93 -59 -74 -60 -59 -54 -58 -75 -85 -107 -116 -126 -109 -0 -0 -0 -69 -0 -0 -0 -0 -0 -0 -0 -0 -0 -0 -0 -0 -0 -0 -0 -0 -0 -0 -0 -0 -0 -0 -0 -0 -0
-143 -45 -50 -50 -53 -60 -38 -23 -30 -27 -37 -55 -64 -71 -65 -89 -81 -1 -0 -0 -0 -3 -3 -0 -0 -0 -0 -0 -0 -0 -0 -0 -0 -0 -0 -17 -7 -0 -0 -0 -0 -0 -0
-42 -41 -31 -41 -55 -62 -46 -25 -21 -24 -25 -26 -44 -53 -63 -71 -59 -71 -76 -110 -131 -151 -134 -80 -0 -0 -0 -0 -0 -0 -0 -0 -0 -3 -10 -29 -0 -0 -0 -0 -0 -0 -0
-83 -40 -41 -38 -34 -33 -36 -31 -34 -35 -32 -29 -26 -30 -35 -33 -44 -50 -50 -104 -93 -90 -106 -0 -0 -0 -0 -0 -0 -0 -0 -0 -0 -34 -39 -38 -0 -47 -0 -0 -29 -0 -0
-0 -0 -0 -12 -0 -0 -0 -58 -36 -52 -57 -43 -41 -40 -50 -53 -39 -49 -72 -86 -108 -119 -8 -0 -0 -0 -0 -0 -0 -0 -0 -0 -0 -29 -27 -27 -49 -0 -0 -0 -36 -29 -24
-0 -0 -0 -0 -0 -0 -0 -0 -13 -42 -30 -30 -28 -33 -43 -57 -66 -60 -68 -67 -94 -102 -0 -0 -0 -0 -0 -0 -0 -0 -0 -0 -23 -33 -0 -0 -0 -0 -0 -0 -0 -24 -0
-4 -0 -29 -0 -38 -0 -0 -0 -0 -0 -43 -39 -62 -79 -45 -42 -39 -71 -99 -92 -53 -0 -0 -0 -0 -0 -0 -0 -0 -0 -0 -0 -28 -4 -0 -0 -0 -0 -0 -0 -0 -62 -0
-96 -75 -73 -80 -60 -42 -48 -10 -9 -7 -0 -0 -6 -53 -76 -57 -61 -76 -126 -56 -112 -0 -0 -0 -0 -0 -0 -0 -0 -0 -0 -0 -0 -0 -0 -0 -0 -0 -0 -0 -0 -0 -0
-74 -71 -7 -8 -71 -69 -63 -52 -35 -0 -39 -32 -44 -36 -41 -66 -78 -88 -148 -0 -0 -0 -0 -0 -0 -0 -0 -0 -0 -0 -0 -0 -0 -0 -0 -0 -0 -0 -0 -0 -0 -0 -0
-33 -38 -55 -53 -8 -0 -0 -0 -70 -53 -55 -59 -64 -40 -31 -29 -66 -103 -135 -0 -0 -0 -0 -0 -0 -0 -0 -0 -0 -0 -0 -0 -0 -0 -0 -0 -0 -0 -0 -0 -0 -0 -0
-32 -34 -38 -42 -0 -0 -0 -0 -0 -0 -0 -0 -20 -92 -62 -39 -53 -109 -127 -164 -128 -0 -0 -0 -0 -0 -0 -11 -0 -0 -0 -0 -0 -0 -0 -0 -0 -0 -0 -0 -0 -0 -0
-33 -46 -48 -7 -0 -0 -0 -0 -68 -0 -0 -0 -0 -0 -63 -42 -76 -82 -142 -166 -32 -0 -0 -0 -0 -0 -12 -0 -0 -24 -0 -0 -0 -0 -0 -0 -0 -0 -0 -0 -0 -0 -0
-59 -56 -67 -68 -0 -23 -0 -0 -0 -0 -0 -0 -0 -0 -0 -0 -6 -116 -130 -165 -0 -0 -0 -0 -10 -37 -53 -0 -0 -0 -0 -0 -0 -0 -0 -0 -0 -0 -0 -0 -0 -0 -0
-60 -59 -0 -48 -0 -0 -0 -0 -0 -0 -0 -103 -0 -0 -0 -0 -0 -0 -0 -0 -0 -0 -16 -13 -3 -0 -0 -0 -0 -0 -0 -0 -0 -0 -0 -0 -0 -0 -0 -0 -0 -0 -0
-37 -0 -0 -0 -0 -0 -0 -0 -0 -0 -0 -0 -0 -0 -0 -0 -0 -0 -0 -39 -3 -14 -15 -0 -0 -0 -0 -0 -0 -0 -0 -0 -0 -0 -0 -0 -0 -0 -0 -0 -0 -0 -0
-19 -0 -0 -0 -0 -0 -0 -0 -0 -0 -0 -0 -0 -0 -0 -0 -0 -0 -0 -1 -0 -0 -0 -0 -0 -0 -0 -0 -0 -0 -0 -0 -0 -0 -0 -0 -0 -0 -0 -0 -0 -1 -0
-0 -0 -0 -0 -0 -0 -0 -0 -0 -0 -0 -1 -0 -0 -0 -0 -0 -0 -0 -13 -21 -0 -0 -0 -0 -0 -0 -0 -0 -0 -0 -0 -0 -0 -0 -0 -0 -0 -0 -0 -0 -0 -0
-0 -0 -0 -0 -0 -0 -0 -0 -0 -0 -0 -0 -2 -0 -0 -0 -0 -0 -0 -6 -0 -0 -0 -0 -0 -0 -0 -0 -0 -0 -0 -0 -0 -0 -0 -0 -0 -0 -0 -0 -0 -0 -0
-0 -0 -0 -34 -0 -0 -0 -0 -0 -0 -0 -0 -0 -0 -0 -0 -0 -0 -0 -0 -0 -0 -0 -0 -0 -0 -0 -0 -0 -0 -0 -0 -0 -0 -0 -0 -0 -0 -0 -0 -0 -0 -0
-0 -0 -0 -0 -0 -0 -0 -0 -11 -3 -0 -0 -0 -0 -0 -0 -2 -4 -0 -0 -0 -0 -0 -0 -0 -0 -0 -0 -0 -0 -0 -0 -0 -0 -0 -0 -0 -0 -0 -0 -0 -0 -0
-0 -0 -0 -44 -0 -0 -0 -0 -5 -0 -3 -1 -0 -1 -1 -0 -0 -0 -0 -0 -0 -0 -0 -0 -0 -0 -0 -0 -0 -0 -0 -0 -0 -0 -0 -0 -0 -0 -0 -0 -0 -0 -0
-0 -0 -50 -0 -0 -0 -0 -0 -0 -0 -0 -0 -0 -0 -0 -0 -0 -0 -0 -0 -0 -0 -0 -0 -0 -0 -0 -0 -0 -0 -0 -0 -0 -0 -0 -0 -0 -0 -0 -0 -0 -0 -0
Wind_Speed
10 11 11 12 12 12 12 13 14 15 14 13 12 11 10 10 9 9 9 9 11 11 11 12 13 12 12 12 13 15 17 18 20 20 19 18 21 23 23 21 21 21 21
11 12 12 14 16 14 15 15 15 16 16 16 15 14 13 11 10 10 10 10 12 12 13 12 14 12 13 12 13 15 18 19 19 21 20 20 19 17 18 19 21 22 25
15 19 18 16 15 14 15 17 17 18 19 19 17 16 15 13 12 11 12 13 13 13 14 13 14 13 13 12 13 15 18 19 18 19 21 19 16 15 14 18 21 24 27
18 19 19 18 16 16 18 18 18 18 19 20 20 19 18 17 15 13 13 14 14 15 16 16 16 14 13 13 14 16 17 19 19 19 20 18 16 16 16 16 20 24 28
22 23 21 17 18 20 21 21 20 19 19 19 20 21 19 19 18 17 16 17 16 18 18 18 16 15 15 15 16 16 17 19 20 19 18 17 16 16 14 13 20 27 25
27 24 21 22 21 21 23 24 22 18 17 19 20 21 21 21 18 18 18 20 20 20 19 19 18 17 14 13 11 14 17 18 18 17 15 17 13 14 10 13 20 26 28
26 23 23 22 22 24 24 23 25 26 24 22 22 22 22 21 18 17 17 19 20 19 20 19 19 17 13 11 12 15 15 13 13 13 13 13 16 14 11 14 18 21 23
26 23 23 24 26 27 27 26 26 26 27 27 26 25 24 21 19 19 21 22 23 24 22 20 18 16 12 11 12 15 14 11 10 11 11 14 13 10 9 13 16 17 20
27 26 26 27 30 31 31 30 30 30 30 29 29 31 30 26 24 23 25 26 27 27 22 19 17 14 13 10 13 13 13 12 13 12 12 12 11 11 12 13 14 18 20
27 23 23 24 28 33 33 33 32 32 32 31 32 31 30 29 31 29 26 27 28 26 24 19 15 13 10 9 10 11 12 12 15 14 13 14 12 13 10 7 12 14 16
26 26 27 26 30 26 32 33 38 35 35 34 35 36 31 29 30 28 28 29 28 24 23 18 15 12 10 9 8 9 11 15 14 14 12 12 12 14 12 10 7 8 11
28 30 31 31 31 31 31 37 35 35 38 40 40 39 34 33 32 28 28 27 27 27 24 18 14 11 12 8 8 8 11 12 12 11 12 12 12 13 13 10 7 5 5
30 31 31 32 33 33 33 33 39 39 39 40 39 39 39 37 32 29 29 30 27 25 23 17 13 11 10 12 10 10 12 12 10 11 10 11 12 12 14 14 11 8 9
28 29 30 32 32 33 35 35 35 36 37 38 39 40 39 38 33 31 31 31 26 21 20 17 12 11 9 8 11 13 14 10 9 10 10 10 14 13 12 11 11 13 12
26 27 28 27 32 34 36 37 37 37 34 36 34 33 35 35 32 28 27 25 21 19 17 15 14 10 10 11 14 13 12 11 11 10 10 11 10 10 11 12 12 13 13
26 27 28 30 33 34 35 36 31 28 25 28 25 23 26 23 24 22 19 24 24 18 17 15 13 16 14 12 13 13 14 12 10 11 10 8 7 9 12 13 14 13 14
25 26 27 30 31 30 31 31 33 34 26 24 27 28 27 29 31 22 21 20 22 14 18 18 14 14 14 13 13 14 14 14 14 13 12 10 10 11 12 14 17 15 12
23 23 26 28 29 29 28 28 31 31 30 32 31 27 28 25 25 18 18 19 15 11 11 14 17 17 15 14 12 11 13 15 15 15 14 13 12 9 11 13 11 10 8
25 27 29 29 27 24 21 19 26 27 17 22 26 26 24 26 22 16 14 20 9 9 16 19 19 15 13 12 12 12 13 15 15 15 16 16 15 14 16 16 17 15 13
27 26 27 26 24 21 18 20 29 16 16 17 14 5 3 18 23 21 2 6 13 14 17 16 14 12 11 12 13 14 15 15 15 16 16 16 17 16 16 16 15 13 14
29 26 21 20 17 23 28 20 25 18 8 7 2 6 8 14 20 20 12 4 13 13 13 15 13 13 14 14 14 15 16 15 14 15 15 15 16 16 16 16 16 16 13
24 18 17 20 30 24 19 7 11 7 8 3 6 9 14 18 20 6 7 12 10 10 14 17 16 16 16 15 15 16 13 13 14 14 15 16 17 18 18 19 18 17 15
18 13 23 27 22 23 29 28 11 25 11 7 12 16 17 21 13 5 5 9 11 15 15 16 17 16 17 16 16 6 11 14 15 15 17 20 21 21 22 22 19 17 17
26 24 22 23 22 27 27 29 27 21 18 18 18 14 20 16 12 14 10 13 14 14 15 16 17 17 15 14 14 14 14 17 17 19 23 24 24 23 21 20 17 17 18
19 19 19 17 19 23 25 28 27 27 24 21 20 17 16 22 20 9 18 15 15 15 16 16 16 16 14 13 13 12 16 19 22 23 23 22 22 21 19 18 18 18 19
17 17 8 16 19 21 24 28 29 30 28 27 27 17 7 13 13 15 16 14 15 15 15 15 15 14 13 12 12 11 14 21 22 22 21 19 19 17 17 17 17 18 20
Wind_Direction
2 354 352 351 349 351 349 348 346 344 341 339 335 336 329 323 320 324 323 327 323 323 327 324 329 335 334 339 344 345 342 341 336 340 343 341 338 337 340 344 343 341 336
346 343 341 339 341 341 340 340 341 338 336 331 331 330 328 324 317 316 316 315 316 316 319 319 321 325 329 332 335 337 338 338 337 336 343 344 344 351 349 350 346 343 339
335 332 335 335 335 335 339 338 334 334 333 334 328 325 325 323 317 312 311 312 313 311 312 310 314 313 317 322 325 326 330 335 337 337 336 338 342 343 354 352 345 344 341
331 330 328 329 330 331 333 334 333 334 333 334 333 329 324 321 317 311 308 308 308 310 308 306 310 306 306 310 314 319 325 330 331 333 334 335 337 343 346 350 348 346 343
331 328 326 330 330 328 327 328 329 329 330 332 331 330 328 322 319 315 309 310 306 307 305 304 303 301 302 303 306 311 318 322 326 325 324 332 337 337 338 353 346 342 349
328 327 328 329 332 332 329 324 327 329 330 330 327 326 325 323 321 315 311 308 306 305 304 306 302 299 294 289 298 310 318 322 327 330 333 334 336 340 348 345 341 341 342
334 332 331 330 330 331 333 329 323 322 326 329 329 326 324 322 323 322 319 316 313 309 308 309 309 309 303 300 297 311 316 318 321 329 332 332 333 331 339 339 339 343 344
337 334 331 329 326 326 326 325 325 328 327 326 326 325 323 322 321 321 320 320 317 313 311 307 307 306 304 305 306 314 318 327 329 329 327 329 334 341 335 338 339 342 347
337 336 335 332 328 327 325 323 325 322 323 324 322 320 318 321 319 318 315 317 319 316 314 311 310 307 307 304 313 316 321 325 334 332 331 333 332 333 335 337 337 340 342
335 335 337 336 335 329 326 325 325 324 321 320 320 322 321 319 314 314 316 315 318 320 315 313 309 309 307 302 308 316 323 328 336 341 344 345 353 348 346 341 342 341 348
330 327 327 326 325 322 314 319 320 323 319 317 317 319 319 315 313 313 312 313 314 320 316 314 315 307 305 308 310 316 325 333 337 342 348 351 354 349 350 347 345 345 345
327 324 323 322 322 320 315 311 312 312 309 310 314 316 318 310 309 312 311 311 313 310 314 315 315 310 307 310 320 322 327 335 341 344 345 345 345 345 349 354 354 346 341
328 327 328 328 326 324 321 317 315 314 312 314 312 312 311 309 308 310 313 310 313 311 309 313 315 312 309 314 325 336 339 336 342 340 341 342 346 346 350 348 349 356 340
331 331 330 329 329 328 325 322 319 315 313 313 313 312 309 307 308 307 306 307 310 310 309 307 311 309 316 326 334 331 334 340 341 339 339 338 342 349 348 350 348 345 341
337 335 335 334 331 329 327 323 320 317 317 317 316 318 318 314 310 309 308 307 308 303 300 296 303 311 314 325 330 332 337 339 335 331 331 330 332 339 342 345 340 343 345
340 338 336 335 333 332 331 332 338 343 336 329 327 324 324 325 325 321 321 307 296 296 288 287 294 302 310 326 330 334 335 337 343 342 338 335 331 337 342 347 349 347 340
337 338 337 334 337 338 337 337 335 333 344 340 334 329 325 318 315 324 325 315 295 299 282 283 295 307 319 329 335 341 349 355 357 358 358 9 3 358 358 355 346 342 345
336 337 336 335 336 337 337 338 334 335 337 334 332 332 329 330 318 327 329 310 298 303 295 286 289 306 322 334 348 2 3 358 1 4 8 11 11 12 358 349 352 349 339
331 331 331 333 337 339 344 345 341 340 344 346 342 335 334 317 319 327 312 281 299 306 278 283 289 311 331 348 1 6 7 4 3 9 10 10 9 9 1 356 347 342 339
330 331 332 333 336 341 343 343 339 350 351 352 352 270 74 350 271 244 310 66 270 273 276 301 319 339 5 9 13 9 7 6 14 20 20 19 16 15 9 6 10 15 2
329 331 335 339 346 343 335 354 347 347 290 272 254 69 91 197 226 205 259 31 263 274 13 45 30 28 22 23 19 17 6 24 39 32 32 35 35 39 51 58 69 85 254
335 344 349 345 296 340 356 344 355 342 238 196 161 178 200 198 199 335 268 266 317 23 46 55 35 23 21 20 14 4 48 67 46 50 60 63 69 76 82 90 117 157 185
335 345 316 290 346 352 352 357 34 309 236 186 188 199 176 145 206 264 320 14 47 62 49 38 32 18 14 354 318 212 146 79 85 86 90 89 93 96 99 109 139 157 168
277 260 248 318 356 347 1 351 337 316 309 53 94 76 73 63 44 33 13 56 63 46 39 35 35 30 1 312 286 281 319 95 107 110 105 102 105 112 123 131 146 157 163
226 217 245 7 26 20 24 24 17 22 27 36 47 54 53 76 82 159 84 71 57 46 41 36 30 11 311 291 277 271 139 112 110 117 121 121 120 124 133 140 147 150 151
220 207 283 76 58 54 56 51 48 53 50 54 64 48 349 305 320 55 74 68 57 43 38 25 15 328 298 281 282 301 178 118 132 139 141 149 140 149 150 151 154 154 153